Weather History for LICZ - April, 2013

Change the Weather History Date:

Monday, April 22, 2013

  Actual Average Record
Temperature  
Mean Temperature 58 °F -  
Max Temperature 61 °F 76 °F 82 °F (1999)
Min Temperature 55 °F 51 °F 41 °F (2005)
Degree Days  
Heating Degree Days 7    
Growing Degree Days 8 (Base 50)    
Moisture  
Dew Point 57 °F    
Average Humidity 100    
Maximum Humidity 100    
Minimum Humidity 97    
Precipitation  
Precipitation 0.63 in 0.03 in - ()
Sea Level Pressure  
Sea Level Pressure 29.98 in    
Wind  
Wind Speed 3 mph ()    
Max Wind Speed 12 mph    
Max Gust Speed -    
Visibility 1.5 miles    
Events Fog , Rain    
Averages and records for this station are not official NWS values.
T = Trace of Precipitation, MM = Missing Value Source: Averaged Metar Reports

Daily Weather History Graph

Daily Weather History Graph

Search for Another Location

Airport or City:

Trip Planner

Search our weather history database for the weather conditions in past years. The results will help you decide how hot, cold, wet, or windy it might be!

Date:

Astronomy

Apr. 22, 2013 Rise Set
Actual Time 6:16 AM CEST 7:41 PM CEST
Civil Twilight 5:48 AM CEST 8:09 PM CEST
Nautical Twilight 5:16 AM CEST 8:42 PM CEST
Astronomical Twilight 4:41 AM CEST 9:16 PM CEST
Moon 4:16 PM CEST (4/22) 3:56 AM CEST (4/22)
Length of Visible Light 14h 20m
Length of Day
13h 25m
Waxing Gibbous, 86% of the Moon is Illuminated
Apr 22
Waxing Gibbous
Apr 25
Full
May 2
Last Quarter
May 10
New
May 18
First Quarter

Hourly Weather History & Observations

Time (CEST) Temp. Dew Point Humidity Pressure Visibility Wind Dir Wind Speed Gust Speed Precip Events Conditions
12:55 AM 53.6 °F 53.6 °F 100% 29.98 in 1.2 mi SW 2.3 mph - N/A   Mostly Cloudy
1:55 AM 55.4 °F 55.4 °F 100% 29.98 in 1.2 mi WNW 3.5 mph - N/A   Mostly Cloudy
2:00 AM 56 °F 56 °F 100% 29.99 in 1 mi WNW 3.5 mph - -   Mist
2:55 AM 57.2 °F 57.2 °F 100% 29.98 in 1.2 mi NNW 2.3 mph - N/A   Mostly Cloudy
3:55 AM 55.4 °F 55.4 °F 100% 29.95 in 1.9 mi North 2.3 mph - N/A   Mostly Cloudy
4:55 AM 57.2 °F 57.2 °F 100% 29.95 in 1.2 mi South 2.3 mph - N/A   Mostly Cloudy
5:00 AM 56 °F 56 °F 100% 29.96 in 1 mi South 2.3 mph - -   Mist
5:55 AM 57.2 °F 57.2 °F 100% 29.95 in 1.2 mi SSW 3.5 mph - N/A   Mostly Cloudy
6:55 AM 57.2 °F 57.2 °F 100% 29.95 in 0.6 mi NW 3.5 mph - N/A Fog , Rain Light Rain
7:55 AM 57.2 °F 57.2 °F 100% 29.95 in 0.6 mi West 2.3 mph - N/A Fog , Rain Light Rain
8:00 AM 58 °F 58 °F 100% 29.96 in 1 mi West 2.3 mph - - Rain Light Rain
8:18 AM 59.0 °F 59.0 °F 100% 29.95 in 0.4 mi South 1.2 mph - N/A Rain Light Rain
8:55 AM 57.2 °F 57.2 °F 100% 29.98 in 0.4 mi SSW 1.2 mph - N/A Rain Light Rain
9:23 AM 57.2 °F 57.2 °F 100% 29.98 in 0.7 mi Calm Calm - N/A Rain Light Rain
9:55 AM 57.2 °F 57.2 °F 100% 29.98 in 0.7 mi North 1.2 mph - N/A Rain Light Rain
10:55 AM 59.0 °F 59.0 °F 100% 29.98 in 2.2 mi WSW 6.9 mph - N/A Rain Light Rain
11:00 AM 59 °F 59 °F 100% 30.00 in 2 mi WSW 6.9 mph - - Rain Light Rain
11:55 AM 60.8 °F 60.8 °F 100% 29.98 in 2.2 mi NW 9.2 mph - N/A   Mostly Cloudy
12:31 PM 59.0 °F 59.0 °F 100% 29.98 in 3.1 mi NNW 11.5 mph - N/A Rain Light Rain
12:55 PM 57.2 °F 57.2 °F 100% 29.98 in 3.1 mi NNW 6.9 mph - N/A Rain Light Rain
1:27 PM 57.2 °F 57.2 °F 100% 29.98 in 1.2 mi North 5.8 mph - N/A Rain Light Rain
1:55 PM 57.2 °F 57.2 °F 100% 30.01 in 1.2 mi ENE 3.5 mph - N/A Rain Light Rain
2:00 PM 58 °F 58 °F 98% 30.01 in 1 mi ENE 3.5 mph - - Rain Light Rain
2:55 PM 57.2 °F 57.2 °F 100% 29.98 in 1.2 mi NNE 3.5 mph - N/A Rain Light Rain
3:55 PM 57.2 °F 57.2 °F 100% 29.98 in 1.2 mi West 3.5 mph - N/A Rain Light Rain
4:09 PM 57.2 °F 57.2 °F 100% 29.98 in 0.4 mi WSW 2.3 mph - N/A Rain Light Rain
4:55 PM 57.2 °F 57.2 °F 100% 29.98 in 3.1 mi ESE 5.8 mph - N/A Rain Light Rain
5:00 PM 57 °F 57 °F 100% 29.98 in 1 mi ESE 5.8 mph - - Rain Light Rain
5:55 PM 57.2 °F 57.2 °F 100% 29.98 in 0.7 mi South 2.3 mph - N/A Rain Light Rain
6:55 PM 57.2 °F 57.2 °F 100% 29.98 in 0.7 mi NNE 4.6 mph - N/A Rain Light Rain
7:55 PM 57.2 °F 57.2 °F 100% 29.98 in 0.7 mi NW 5.8 mph - N/A Rain Light Rain
8:00 PM 58 °F 58 °F 98% 29.99 in 1 mi NW 5.8 mph - - Rain Light Rain
9:55 PM 57.2 °F 57.2 °F 100% 30.01 in 3.7 mi NW 4.6 mph - N/A   Mostly Cloudy
10:55 PM 57.2 °F 57.2 °F 100% 30.01 in 4.3 mi NNW 4.6 mph - N/A   Mostly Cloudy
11:00 PM 57 °F 56 °F 97% 30.03 in 4 mi NNW 4.6 mph - -   Mist